JST518 YMML-YSSY

Flight info

Callsign JST518
Flight time 0h 57m
Altitude 37000
Route ML H129 DOSEL Y59 RIVET
Aircraft A320/M-SDE3FGHIRWY/LB1

Departure

Time 2026-05-07 10:04
Airport Melbourne Airport (YMML)

Arrival

Time 2026-05-07 11:01
Airport Sydney Kingsford Smith International Airport (YSSY)
Time Latitude Longitude Altitude Speed Heading
2026-05-07 09:38 -37.67517 144.84836 380 ft 0 kts 171°
2026-05-07 09:50 -37.67499 144.84832 380 ft 4 kts 169°
2026-05-07 09:50 -37.67473 144.84825 381 ft 4 kts 163°
2026-05-07 09:50 -37.67448 144.84813 381 ft 4 kts 148°
2026-05-07 09:50 -37.67430 144.84792 382 ft 4 kts 98°
2026-05-07 09:51 -37.67432 144.84763 382 ft 4 kts 81°
2026-05-07 09:51 -37.67436 144.84729 381 ft 4 kts 81°
2026-05-07 09:51 -37.67440 144.84695 381 ft 4 kts 81°
2026-05-07 09:51 -37.67444 144.84662 381 ft 4 kts 81°
2026-05-07 09:52 -37.67448 144.84628 380 ft 4 kts 81°
2026-05-07 09:52 -37.67452 144.84597 380 ft 4 kts 72°
2026-05-07 09:52 -37.67464 144.84568 379 ft 4 kts 43°
2026-05-07 09:52 -37.67486 144.84550 378 ft 4 kts 15°
2026-05-07 09:53 -37.67513 144.84545 378 ft 4 kts 359°
2026-05-07 09:53 -37.67540 144.84548 377 ft 4 kts 351°
2026-05-07 09:53 -37.67559 144.84552 376 ft 0 kts 351°
2026-05-07 09:57 -37.67535 144.84548 377 ft 5 kts 352°
2026-05-07 09:57 -37.67500 144.84538 378 ft 7 kts 339°
2026-05-07 09:57 -37.67468 144.84474 378 ft 11 kts 273°
2026-05-07 09:57 -37.67481 144.84362 376 ft 15 kts 260°
2026-05-07 09:58 -37.67435 144.84301 377 ft 12 kts
2026-05-07 09:58 -37.67347 144.84297 379 ft 13 kts 351°
2026-05-07 09:58 -37.67251 144.84279 381 ft 15 kts 352°
2026-05-07 09:58 -37.67141 144.84257 383 ft 16 kts 351°
2026-05-07 09:59 -37.67026 144.84236 385 ft 17 kts 352°
2026-05-07 09:59 -37.66906 144.84214 388 ft 18 kts 351°
2026-05-07 09:59 -37.66792 144.84193 392 ft 12 kts 353°
2026-05-07 09:59 -37.66720 144.84180 394 ft 10 kts 352°
2026-05-07 10:00 -37.66651 144.84167 397 ft 10 kts 351°
2026-05-07 10:00 -37.66585 144.84178 401 ft 11 kts 27°
2026-05-07 10:00 -37.66536 144.84268 403 ft 15 kts 72°
2026-05-07 10:00 -37.66514 144.84420 404 ft 20 kts 80°
2026-05-07 10:01 -37.66494 144.84589 406 ft 19 kts 84°
2026-05-07 10:01 -37.66459 144.84736 407 ft 15 kts 48°
2026-05-07 10:01 -37.66382 144.84782 411 ft 12 kts
2026-05-07 10:01 -37.66357 144.84784 411 ft 0 kts
2026-05-07 10:02 -37.66355 144.84784 411 ft 1 kts
2026-05-07 10:02 -37.66343 144.84785 412 ft 4 kts
2026-05-07 10:02 -37.66298 144.84789 412 ft 9 kts
2026-05-07 10:02 -37.66232 144.84776 413 ft 9 kts 309°
2026-05-07 10:03 -37.66222 144.84717 413 ft 0 kts 272°
2026-05-07 10:03 -37.66211 144.84521 412 ft 57 kts 274°
2026-05-07 10:03 -37.66167 144.83751 414 ft 115 kts 274°
2026-05-07 10:04 -37.66103 144.82568 564 ft 147 kts 273°
2026-05-07 10:04 -37.66014 144.81274 1207 ft 150 kts 274°
2026-05-07 10:04 -37.65537 144.80085 1817 ft 166 kts 317°
2026-05-07 10:04 -37.64388 144.79643 2343 ft 189 kts 354°
2026-05-07 10:05 -37.63059 144.80228 2622 ft 221 kts 29°
2026-05-07 10:05 -37.61835 144.81517 2981 ft 240 kts 40°
2026-05-07 10:05 -37.60606 144.83100 3269 ft 265 kts 44°
2026-05-07 10:05 -37.59295 144.84888 3692 ft 288 kts 46°
2026-05-07 10:06 -37.57912 144.86778 4471 ft 297 kts 46°
2026-05-07 10:06 -37.56479 144.88706 4885 ft 303 kts 46°
2026-05-07 10:06 -37.55011 144.90644 5462 ft 307 kts 46°
2026-05-07 10:06 -37.53520 144.92579 6392 ft 309 kts 46°
2026-05-07 10:07 -37.52006 144.94522 7227 ft 313 kts 47°
2026-05-07 10:07 -37.50466 144.96487 8025 ft 317 kts 47°
2026-05-07 10:07 -37.48905 144.98475 8808 ft 322 kts 48°
2026-05-07 10:07 -37.47318 145.00494 9587 ft 327 kts 48°
2026-05-07 10:08 -37.45698 145.02556 10276 ft 337 kts 49°
2026-05-07 10:08 -37.43995 145.04731 10506 ft 360 kts 49°
2026-05-07 10:08 -37.42179 145.07048 10684 ft 384 kts 48°
2026-05-07 10:08 -37.40248 145.09513 10805 ft 406 kts 48°
2026-05-07 10:09 -37.38218 145.12103 10928 ft 426 kts 48°
2026-05-07 10:09 -37.36107 145.14787 11342 ft 434 kts 47°
2026-05-07 10:09 -37.33967 145.17495 11894 ft 439 kts 47°
2026-05-07 10:09 -37.31804 145.20225 12453 ft 443 kts 47°
2026-05-07 10:10 -37.29617 145.22981 13007 ft 448 kts 47°
2026-05-07 10:10 -37.27410 145.25767 13576 ft 451 kts 47°
2026-05-07 10:10 -37.25212 145.28541 14123 ft 456 kts 47°
2026-05-07 10:10 -37.22967 145.31377 14606 ft 459 kts 47°
2026-05-07 10:11 -37.20710 145.34229 15099 ft 463 kts 47°
2026-05-07 10:11 -37.18431 145.37108 15603 ft 466 kts 47°
2026-05-07 10:11 -37.16222 145.40093 16079 ft 468 kts 53°
2026-05-07 10:11 -37.14292 145.43385 16548 ft 470 kts 57°
2026-05-07 10:12 -37.12385 145.46728 17053 ft 473 kts 57°
2026-05-07 10:12 -37.10466 145.50087 17523 ft 476 kts 56°
2026-05-07 10:12 -37.08528 145.53467 18042 ft 479 kts 56°
2026-05-07 10:12 -37.06573 145.56869 18553 ft 482 kts 56°
2026-05-07 10:13 -37.04608 145.60281 18988 ft 485 kts 56°
2026-05-07 10:13 -37.02631 145.63713 19401 ft 488 kts 56°
2026-05-07 10:13 -37.00639 145.67169 19803 ft 491 kts 56°
2026-05-07 10:13 -36.98634 145.70640 20214 ft 494 kts 56°
2026-05-07 10:14 -36.96611 145.74138 20616 ft 497 kts 56°
2026-05-07 10:14 -36.94573 145.77651 20997 ft 500 kts 55°
2026-05-07 10:14 -36.92528 145.81175 21406 ft 502 kts 56°
2026-05-07 10:14 -36.90472 145.84721 21781 ft 505 kts 56°
2026-05-07 10:15 -36.88407 145.88285 22113 ft 508 kts 56°
2026-05-07 10:15 -36.86328 145.91871 22441 ft 511 kts 56°
2026-05-07 10:15 -36.84240 145.95468 22755 ft 513 kts 55°
2026-05-07 10:15 -36.82135 145.99086 23082 ft 516 kts 55°
2026-05-07 10:16 -36.80019 146.02715 23390 ft 519 kts 55°
2026-05-07 10:16 -36.77890 146.06359 23813 ft 519 kts 55°
2026-05-07 10:16 -36.75764 146.09994 24199 ft 519 kts 55°
2026-05-07 10:16 -36.73639 146.13627 24603 ft 518 kts 55°
2026-05-07 10:17 -36.71518 146.17250 25008 ft 517 kts 55°
2026-05-07 10:17 -36.69424 146.20829 25406 ft 517 kts 55°
2026-05-07 10:17 -36.67997 146.23270 25685 ft 516 kts 55°
2026-05-07 10:17 -36.65885 146.26882 26108 ft 516 kts 55°
2026-05-07 10:18 -36.63078 146.31672 26697 ft 515 kts 54°
2026-05-07 10:18 -36.60962 146.35265 27105 ft 515 kts 54°
2026-05-07 10:18 -36.58838 146.38860 27514 ft 515 kts 54°
2026-05-07 10:18 -36.56715 146.42445 27954 ft 515 kts 54°
2026-05-07 10:19 -36.55280 146.44869 28268 ft 514 kts 54°
2026-05-07 10:19 -36.52475 146.49608 28873 ft 513 kts 54°
2026-05-07 10:19 -36.50361 146.53182 29335 ft 512 kts 54°
2026-05-07 10:19 -36.48251 146.56744 29785 ft 511 kts 54°
2026-05-07 10:20 -36.46855 146.59101 30147 ft 510 kts 55°
2026-05-07 10:20 -36.44051 146.63838 30772 ft 507 kts 55°
2026-05-07 10:20 -36.42675 146.66163 31059 ft 506 kts 55°
2026-05-07 10:20 -36.40586 146.69684 31518 ft 504 kts 54°
2026-05-07 10:21 -36.38508 146.73178 31967 ft 502 kts 55°
2026-05-07 10:21 -36.36434 146.76659 32411 ft 501 kts 54°
2026-05-07 10:21 -36.34370 146.80117 32866 ft 498 kts 55°
2026-05-07 10:21 -36.32307 146.83568 33341 ft 496 kts 55°
2026-05-07 10:22 -36.30255 146.86993 33818 ft 495 kts 55°
2026-05-07 10:22 -36.28205 146.90417 34248 ft 494 kts 55°
2026-05-07 10:22 -36.26165 146.93824 34615 ft 492 kts 55°
2026-05-07 10:22 -36.24127 146.97233 34968 ft 491 kts 55°
2026-05-07 10:23 -36.22094 147.00632 35194 ft 491 kts 55°
2026-05-07 10:23 -36.17988 147.07479 35272 ft 502 kts 54°
2026-05-07 10:24 -36.13799 147.14440 35269 ft 514 kts 55°
2026-05-07 10:24 -36.09474 147.21610 35268 ft 516 kts 54°
2026-05-07 10:25 -36.05172 147.28718 35270 ft 515 kts 54°
2026-05-07 10:25 -36.00881 147.35799 35268 ft 515 kts 54°
2026-05-07 10:26 -35.96589 147.42883 35285 ft 515 kts 55°
2026-05-07 10:26 -35.92277 147.49972 35273 ft 516 kts 54°
2026-05-07 10:27 -35.87959 147.57040 35273 ft 516 kts 54°
2026-05-07 10:27 -35.83636 147.64113 35269 ft 516 kts 54°
2026-05-07 10:28 -35.79315 147.71183 35263 ft 517 kts 55°
2026-05-07 10:28 -35.74987 147.78251 35270 ft 516 kts 54°
2026-05-07 10:29 -35.70653 147.85307 35270 ft 516 kts 54°
2026-05-07 10:29 -35.66325 147.92348 35270 ft 516 kts 54°
2026-05-07 10:30 -35.59836 148.02845 35274 ft 516 kts 54°
2026-05-07 10:30 -35.55487 148.09868 35272 ft 516 kts 55°
2026-05-07 10:31 -35.51143 148.16885 35267 ft 516 kts 54°
2026-05-07 10:31 -35.46788 148.23892 35273 ft 517 kts 54°
2026-05-07 10:32 -35.42405 148.30912 35255 ft 519 kts 54°
2026-05-07 10:32 -35.38014 148.37951 35246 ft 520 kts 54°
2026-05-07 10:33 -35.33613 148.44993 35238 ft 521 kts 54°
2026-05-07 10:33 -35.29202 148.52039 35250 ft 522 kts 54°
2026-05-07 10:34 -35.24774 148.59101 35241 ft 523 kts 54°
2026-05-07 10:34 -35.20343 148.66151 35240 ft 523 kts 54°
2026-05-07 10:35 -35.15893 148.73208 35233 ft 523 kts 54°
2026-05-07 10:35 -35.11444 148.80247 35256 ft 524 kts 54°
2026-05-07 10:36 -35.06994 148.87288 35249 ft 524 kts 54°
2026-05-07 10:36 -35.02627 148.94355 35231 ft 513 kts 62°
2026-05-07 10:37 -35.01178 148.98224 35236 ft 493 kts 79°
2026-05-07 10:37 -35.00605 149.02232 35238 ft 481 kts 91°
2026-05-07 10:37 -35.00163 149.10357 35227 ft 480 kts 92°
2026-05-07 10:38 -34.99760 149.18485 35236 ft 480 kts 92°
2026-05-07 10:38 -34.98833 149.26619 35232 ft 500 kts 73°
2026-05-07 10:39 -34.97233 149.30395 35232 ft 504 kts 56°
2026-05-07 10:39 -34.94857 149.33519 35230 ft 504 kts 38°
2026-05-07 10:39 -34.91897 149.35769 35234 ft 500 kts 20°
2026-05-07 10:39 -34.88599 149.36976 35242 ft 492 kts
2026-05-07 10:40 -34.81937 149.38297 35230 ft 476 kts 13°
2026-05-07 10:40 -34.75983 149.41558 35225 ft 468 kts 33°
2026-05-07 10:41 -34.71127 149.46763 34844 ft 467 kts 52°
2026-05-07 10:41 -34.69264 149.49941 34608 ft 459 kts 63°
2026-05-07 10:41 -34.67754 149.53349 34379 ft 457 kts 66°
2026-05-07 10:42 -34.66280 149.56771 34037 ft 458 kts 66°
2026-05-07 10:42 -34.64787 149.60188 33663 ft 459 kts 66°
2026-05-07 10:42 -34.63283 149.63609 33259 ft 461 kts 67°
2026-05-07 10:42 -34.61766 149.67055 32835 ft 463 kts 66°
2026-05-07 10:43 -34.60242 149.70511 32437 ft 465 kts 66°
2026-05-07 10:43 -34.58712 149.73975 32037 ft 466 kts 66°
2026-05-07 10:43 -34.57182 149.77445 31633 ft 468 kts 66°
2026-05-07 10:43 -34.55646 149.80936 31134 ft 470 kts 66°
2026-05-07 10:44 -34.54101 149.84452 30633 ft 472 kts 67°
2026-05-07 10:44 -34.52554 149.87974 30119 ft 475 kts 66°
2026-05-07 10:44 -34.50991 149.91525 29479 ft 478 kts 67°
2026-05-07 10:44 -34.49419 149.95088 28777 ft 480 kts 67°
2026-05-07 10:45 -34.47860 149.98614 28049 ft 482 kts 66°
2026-05-07 10:45 -34.46269 150.02208 27265 ft 485 kts 66°
2026-05-07 10:45 -34.44668 150.05819 26498 ft 488 kts 66°
2026-05-07 10:45 -34.43058 150.09443 25757 ft 489 kts 66°
2026-05-07 10:46 -34.41439 150.13080 25020 ft 491 kts 65°
2026-05-07 10:46 -34.39801 150.16762 23864 ft 502 kts 65°
2026-05-07 10:46 -34.38133 150.20515 22383 ft 509 kts 66°
2026-05-07 10:46 -34.36436 150.24340 21035 ft 519 kts 66°
2026-05-07 10:47 -34.34729 150.28179 20129 ft 516 kts 67°
2026-05-07 10:47 -34.33031 150.31979 19309 ft 510 kts 66°
2026-05-07 10:47 -34.31350 150.35720 18540 ft 503 kts 67°
2026-05-07 10:47 -34.29685 150.39415 17710 ft 496 kts 67°
2026-05-07 10:48 -34.28044 150.43059 16889 ft 489 kts 67°
2026-05-07 10:48 -34.26435 150.46645 16122 ft 482 kts 68°
2026-05-07 10:48 -34.24858 150.50174 15416 ft 473 kts 67°
2026-05-07 10:48 -34.23320 150.53614 14947 ft 451 kts 67°
2026-05-07 10:49 -34.21872 150.56824 14681 ft 423 kts 67°
2026-05-07 10:49 -34.20485 150.59904 14327 ft 413 kts 68°
2026-05-07 10:49 -34.19135 150.62924 13957 ft 404 kts 68°
2026-05-07 10:49 -34.17816 150.65878 13549 ft 396 kts 68°
2026-05-07 10:50 -34.16523 150.68773 13153 ft 389 kts 67°
2026-05-07 10:50 -34.15250 150.71623 12756 ft 382 kts 67°
2026-05-07 10:50 -34.13999 150.74421 12366 ft 375 kts 66°
2026-05-07 10:50 -34.12763 150.77166 11996 ft 370 kts 64°
2026-05-07 10:51 -34.11521 150.79959 11620 ft 388 kts 65°
2026-05-07 10:51 -34.10363 150.82849 11226 ft 376 kts 74°
2026-05-07 10:51 -34.09622 150.85812 10781 ft 360 kts 77°
2026-05-07 10:51 -34.08979 150.88638 10183 ft 348 kts 77°
2026-05-07 10:52 -34.08363 150.91423 9466 ft 341 kts 78°
2026-05-07 10:52 -34.07746 150.94204 8656 ft 337 kts 78°
2026-05-07 10:52 -34.07137 150.96913 7875 ft 333 kts 78°
2026-05-07 10:52 -34.06530 150.99549 7117 ft 329 kts 78°
2026-05-07 10:53 -34.05912 151.02191 6428 ft 325 kts 78°
2026-05-07 10:53 -34.05300 151.04764 5926 ft 313 kts 78°
2026-05-07 10:53 -34.04696 151.07226 5498 ft 301 kts 78°
2026-05-07 10:53 -34.04103 151.09604 5066 ft 292 kts 78°
2026-05-07 10:54 -34.03518 151.11920 4620 ft 286 kts 78°
2026-05-07 10:54 -34.02941 151.14184 4175 ft 279 kts 78°
2026-05-07 10:54 -34.02375 151.16399 3733 ft 274 kts 78°
2026-05-07 10:54 -34.01818 151.18575 3302 ft 269 kts 78°
2026-05-07 10:55 -34.01270 151.20738 3017 ft 267 kts 78°
2026-05-07 10:55 -34.00743 151.22823 3011 ft 257 kts 78°
2026-05-07 10:55 -34.00228 151.24871 3010 ft 253 kts 78°
2026-05-07 10:55 -33.99715 151.26893 3010 ft 252 kts 78°
2026-05-07 10:56 -33.99185 151.28902 3011 ft 252 kts 74°
2026-05-07 10:56 -33.98250 151.30695 2892 ft 257 kts 46°
2026-05-07 10:56 -33.96892 151.32059 2628 ft 252 kts 29°
2026-05-07 10:56 -33.95355 151.33021 2379 ft 247 kts 20°
2026-05-07 10:57 -33.93737 151.33544 2114 ft 236 kts 358°
2026-05-07 10:57 -33.92171 151.33370 1857 ft 219 kts 333°
2026-05-07 10:57 -33.90799 151.32758 1598 ft 201 kts 323°
2026-05-07 10:57 -33.89814 151.31788 1580 ft 176 kts 289°
2026-05-07 10:58 -33.89693 151.30516 1590 ft 140 kts 250°
2026-05-07 10:58 -33.90012 151.29462 1625 ft 129 kts 243°
2026-05-07 10:58 -33.90486 151.28554 1626 ft 128 kts 234°
2026-05-07 10:58 -33.91016 151.27695 1493 ft 127 kts 236°
2026-05-07 10:59 -33.91503 151.26810 1363 ft 127 kts 238°
2026-05-07 10:59 -33.91929 151.25881 1138 ft 128 kts 243°
2026-05-07 10:59 -33.92298 151.24901 955 ft 128 kts 248°
2026-05-07 10:59 -33.92577 151.23892 848 ft 127 kts 251°
2026-05-07 11:00 -33.92838 151.22879 701 ft 125 kts 253°
2026-05-07 11:00 -33.93082 151.21844 562 ft 127 kts 254°
2026-05-07 11:00 -33.93318 151.20825 408 ft 126 kts 255°
2026-05-07 11:00 -33.93558 151.19798 228 ft 128 kts 255°
2026-05-07 11:01 -33.93800 151.18789 59 ft 124 kts 255°
2026-05-07 11:01 -33.94004 151.17925 28 ft 75 kts 253°
2026-05-07 11:01 -33.94093 151.17553 27 ft 30 kts 253°
2026-05-07 11:01 -33.94135 151.17374 28 ft 20 kts 254°
2026-05-07 11:02 -33.94110 151.17261 29 ft 15 kts 345°
2026-05-07 11:02 -33.94030 151.17240 29 ft 0 kts 348°
2026-05-07 11:02 -33.94019 151.17237 29 ft 6 kts 348°
2026-05-07 11:02 -33.93967 151.17252 29 ft 10 kts 44°
2026-05-07 11:03 -33.93950 151.17317 27 ft 14 kts 73°
2026-05-07 11:03 -33.93909 151.17483 27 ft 14 kts 74°
2026-05-07 11:03 -33.93894 151.17551 28 ft 12 kts 76°
2026-05-07 11:03 -33.93868 151.17660 29 ft 15 kts 73°
2026-05-07 11:04 -33.93769 151.17774 30 ft 19 kts 14°
2026-05-07 11:04 -33.93678 151.17802 30 ft 20 kts 15°
2026-05-07 11:04 -33.93590 151.17824 30 ft 1 kts 10°
2026-05-07 11:04 -33.93580 151.17826 30 ft 2 kts
2026-05-07 11:05 -33.93570 151.17806 30 ft 4 kts 283°
2026-05-07 11:05 -33.93565 151.17771 30 ft 4 kts 280°
2026-05-07 11:05 -33.93563 151.17760 30 ft 0 kts 280°
2026-05-07 11:05 -33.93563 151.17759 30 ft 0 kts 280°